TimeEST,TemperatureF,Dew PointF,Humidity,Sea Level PressureIn,VisibilityMPH,Wind Direction,Wind SpeedMPH,Gust SpeedMPH,PrecipitationIn,Events,Conditions,WindDirDegrees,DateUTC
12:52 AM,16.0,14.0,92,29.74,10.0,Calm,Calm,-,N/A,,Overcast,0,2013-12-16 05:52:00
1:52 AM,18.0,16.0,92,29.77,9.0,WNW,4.6,-,N/A,,Overcast,290,2013-12-16 06:52:00
2:03 AM,19.0,16.0,88,29.75,2.5,WSW,3.5,-,0.00,Snow,Light Snow,250,2013-12-16 07:03:00
2:11 AM,19.0,16.0,88,29.75,3.0,SSW,3.5,-,0.00,Snow,Light Snow,210,2013-12-16 07:11:00
2:52 AM,23.0,18.0,81,29.79,9.0,West,4.6,-,0.00,,Overcast,270,2013-12-16 07:52:00
3:52 AM,24.1,15.1,69,29.80,10.0,West,9.2,17.3,N/A,,Overcast,280,2013-12-16 08:52:00
4:52 AM,23.0,8.1,53,29.82,10.0,West,9.2,-,N/A,,Partly Cloudy,280,2013-12-16 09:52:00
5:52 AM,21.9,7.0,53,29.86,10.0,West,17.3,25.3,N/A,,Clear,270,2013-12-16 10:52:00
6:52 AM,19.9,7.0,57,29.89,10.0,West,10.4,-,N/A,,Clear,260,2013-12-16 11:52:00
7:52 AM,19.9,7.0,57,29.93,10.0,West,9.2,-,N/A,,Clear,270,2013-12-16 12:52:00
8:52 AM,21.0,7.0,55,29.96,10.0,West,10.4,-,N/A,,Clear,280,2013-12-16 13:52:00
9:52 AM,21.9,6.1,51,29.99,10.0,WNW,15.0,25.3,N/A,,Clear,290,2013-12-16 14:52:00
10:52 AM,23.0,6.1,48,29.99,10.0,West,12.7,20.7,N/A,,Partly Cloudy,280,2013-12-16 15:52:00
11:52 AM,23.0,5.0,46,29.99,10.0,West,15.0,-,N/A,,Partly Cloudy,260,2013-12-16 16:52:00
12:52 PM,24.1,6.1,46,29.99,10.0,WNW,11.5,21.9,N/A,,Clear,300,2013-12-16 17:52:00
1:52 PM,23.0,6.1,48,30.00,10.0,WNW,16.1,21.9,N/A,,Partly Cloudy,300,2013-12-16 18:52:00
2:52 PM,23.0,7.0,50,30.02,10.0,West,11.5,18.4,N/A,,Mostly Cloudy,280,2013-12-16 19:52:00
3:52 PM,21.0,3.9,48,30.05,10.0,West,9.2,-,N/A,,Scattered Clouds,270,2013-12-16 20:52:00
4:52 PM,19.9,3.9,50,30.08,10.0,West,9.2,-,N/A,,Partly Cloudy,280,2013-12-16 21:52:00
5:52 PM,18.0,5.0,57,30.10,10.0,Variable,3.5,-,N/A,,Mostly Cloudy,0,2013-12-16 22:52:00
6:52 PM,15.1,5.0,64,30.13,10.0,West,5.8,-,N/A,,Clear,270,2013-12-16 23:52:00
7:52 PM,17.1,3.9,56,30.16,10.0,West,10.4,-,N/A,,Clear,270,2013-12-17 00:52:00
8:52 PM,16.0,3.9,59,30.18,10.0,WSW,6.9,-,N/A,,Clear,240,2013-12-17 01:52:00
9:52 PM,16.0,1.9,54,30.19,10.0,West,8.1,-,N/A,,Clear,270,2013-12-17 02:52:00
10:52 PM,12.0,1.9,64,30.20,10.0,NW,4.6,-,N/A,,Clear,310,2013-12-17 03:52:00
11:52 PM,6.1,-0.0,76,30.20,10.0,SSW,4.6,-,N/A,,Clear,200,2013-12-17 04:52:00